Voltar ao catálogo

TELSTAR 11

ORION 1

AtivoComunicaçõesGEO
NORAD 23413·PAYLOAD·🇺🇸 United States

Lançado Nov 29, 1994 de Cape Canaveral Space Force Station

Loading…

TLE

AtualizadoSource: Space-Track

Época: Sep 14, 2026, 13:04 UTC

1 23413U 94079A   26257.54460301 -.00000184  00000-0  00000-0 0  9991
2 23413  13.9199  16.0816 0020845  50.7460 307.7474  0.98582009114830

Acompanhe TELSTAR 11 em tempo real com AllMySat

Download on the App Store